Submittal Forms
Current Contests
Recent Contests

Club Activity Tracker - Contest Group du Quebec (from club selection on form)

Recent postings for the selected club or group are listed below. Other than the call used, all calls listed are only those associated with the club or group. Click on a call to see the details of the posting.
Status Key: new=new posting, update=update prior posting, move=change club/group, delete=delete prior posting.

Sort by   for past

TimestampCallContestClassPowerScoreStatus
2021-05-14 20:35:55VE2FKKRC SSTSingle OpHP551new6426
2021-05-12 20:00:36VE2FKCWopsTSingle OpHP196new6420
2021-05-12 14:02:00VE2AXOCWopsTSingle OpHP1,296new6419
2021-05-12 13:36:03VE2FKCWopsTSingle OpHP1,156new6419
2021-05-10 00:31:28VE2FKKRC SSTSingle OpHP459new6415
2021-05-09 14:58:56VE2FKVolta RTTYSOABHP17,400,870new6411
2021-05-05 20:02:09VE2FKCWopsTSingle OpHP14,400new6403
2021-05-05 14:02:03VE2FKCWopsTSingle OpHP8,370new6402
2021-05-05 14:01:31VE2AXOCWopsTSingle OpHP1,296new6402
2021-05-04 00:09:06VA3DKL7QPSO(A)MixedLP3,936new6394
 
2021-05-03 22:32:25VE2FKNewEngQPSingle OpHP69,690new6397
2021-05-03 18:49:33VE2GTDeQPSingle OpHP3new6396
2021-05-03 18:39:37VE2GTNewEngQPSingle OpHP4new6397
2021-05-03 18:30:06VE2GTInQPSingle OpHP4new6395
2021-05-03 18:16:49VE2GT7QPSO(A)SSBHP8new6394
2021-05-03 00:31:02VE2FKKRC SSTSingle OpHP450new6398
2021-04-28 20:02:32VE2AXOCWopsTSingle OpHP529new6385
2021-04-28 14:02:54VE2AXOCWopsTSingle OpHP1,521new6384
2021-04-28 13:32:53VE2FKCWopsTSingle OpHP2,116new6384
2021-04-26 02:18:58VE2FKKRC SSTSingle OpHP228new6380
 
2021-04-26 00:57:39VE2FKBARTG 75SO ExpertHP2,508new6374
2021-04-24 15:56:59VE2HAY432SprngSprntSingle OpLP4new6367
2021-04-22 15:59:02VE2GTMiQPSingle OpHP120update6357
2021-04-21 20:01:43VE2FKCWopsTSingle OpHP13,800new6365
2021-04-21 13:27:09VE2FKCWopsTSingle OpHP784new6364
2021-04-19 15:16:05VE2CWT(@VE2FU)CQMM DXSOABLP4,935new6356
2021-04-19 01:02:47VE2FKKRC SSTSingle OpHP2,232new6358
2021-04-18 22:35:59VE2FKCQMM DXSOABHP60,720new6356
2021-04-17 02:37:48VA2SIBEA RTTYSOABLP14,418new6317
2021-04-15 19:47:49VE2HAY222SprngSprntSingle OpLP1new